User: anonymous   Login
Location: Theydon Bois
(51.6750°N, 0.1050°E)
Time: 18:29:48
(UTC+01:00)
Language:

Cosmos 773 Rocket - Orbit

View from above orbital plane
View from above orbital plane
View from above satellite
View from above satellite

Ground track
Ground track

The orbit data is extracted from the following two-line orbital elements,

1  8344U 75094B   18199.92232594 +.00000016 +00000-0 +13816-4 0  9998
2  8344 074.0574 114.5563 0022959 275.7872 084.0665 14.39120688242490
Epoch (UTC): 18 July 2018 22:08:08
Eccentricity: 0.0022959
inclination: 74.0574°
perigee height: 745 km
apogee height: 778 km
right ascension of ascending node: 114.5563°
argument of perigee: 275.7872°
revolutions per day: 14.39120688
mean anomaly at epoch: 84.0665°
orbit number at epoch: 24249

The dashed part of the orbit path shows where the satellite is in the earth's shadow,  

DLR